Tracking 28052 objects as of 23-Sep-2023
HD Live streaming from Space Station
objects crossing your sky now

CZ-4C DEB

Track CZ-4C DEB now!
10-day predictions


NORAD ID: 43421
Int'l Code: 2014-080K
Perigee: 884.5 km
Apogee: 1,316.8 km
Inclination: 63.4 °
Period: 107.1 minutes
Semi major axis: 7471 km
RCS: Unknown
Launch date: December 10, 2014
Source: People's Republic of China (PRC)
Launch site: Jiuquan Satellite Launch Center, China (JSC)

Note: This is SATELLITE DEBRIS
Your satellite tracking list
Your tracking list is empty




NASA's NSSDC Master Catalog

Two Line Element Set (TLE):
1 43421U 14080K   23264.76114989  .00000039  00000-0  17214-3 0  9999
2 43421  63.3971  19.8280 0289315   7.1798 353.3236 13.44251500354803
Source of the keplerian elements: AFSPC